Edwards AFB North Base, CA

4:01 AM PDT on August 24, 2019 (GMT -0700)
Edwards AFB North Base

Weather History for K9L2 - May, 2019

Change the Weather History Date:

Friday, May 24, 2019

  Actual Average (WUND) Record (WUND)
Temperature  
Mean Temperature 58 °F -  
Max Temperature 75 °F - - (-1)
Min Temperature 42 °F - - (-1)
Degree Days  
Heating Degree Days 6    
Growing Degree Days 8 (Base 50)    
Moisture  
Dew Point 41 °F    
Average Humidity 55    
Maximum Humidity 92    
Minimum Humidity 23    
Precipitation  
Precipitation 0.00 in - - ()
Sea Level Pressure  
Sea Level Pressure 29.91 in    
Wind  
Wind Speed 5 mph ()    
Max Wind Speed 12 mph    
Max Gust Speed -    
Visibility 8.8 miles    
Events      
Averages and records for this station are not official NWS values.
T = Trace of Precipitation, MM = Missing Value Source: Averaged Metar Reports

Daily Weather History Graph

Daily Weather History Graph

Search for Another Location

Airport or City:

Astronomy

May. 24, 2019 Rise Set
Actual Time 5:42 AM PDT 7:54 PM PDT
Civil Twilight 5:13 AM PDT 8:23 PM PDT
Nautical Twilight 4:38 AM PDT 8:58 PM PDT
Astronomical Twilight 4:00 AM PDT 9:36 PM PDT
Moon 12:23 AM PDT 10:46 AM PDT
Length of Visible Light 15h 10m
Length of Day
14h 12m
Waning Gibbous, 68% of the Moon is Illuminated
May 24
Waning Gibbous
May 26
Last Quarter
Jun 3
New
Jun 9
First Quarter
Jun 17
Full

Hourly Weather History & Observations

Time (PDT) Temp. Windchill Dew Point Humidity Pressure Visibility Wind Dir Wind Speed Gust Speed Precip Events Conditions
12:13 AM 51.8 °F - 44.6 °F 76% 29.95 in 10.0 mi SSW 11.5 mph - N/A   Scattered Clouds
12:58 AM 50.7 °F - 44.6 °F 80% 29.95 in 10.0 mi South 10.4 mph - N/A   Clear
1:58 AM 49.1 °F - 43.3 °F 81% 29.95 in 10.0 mi South 8.1 mph - N/A   Clear
2:58 AM 46.0 °F 41.0 °F 42.3 °F 87% 29.95 in 10.0 mi SE 10.4 mph - N/A   Clear
3:58 AM 44.2 °F 41.8 °F 41.2 °F 89% 29.96 in 10.0 mi ESE 4.6 mph - N/A   Clear
4:58 AM 43.3 °F 41.7 °F 40.3 °F 89% 29.97 in 10.0 mi South 3.5 mph - N/A   Clear
5:58 AM 42.1 °F - 39.9 °F 92% 29.97 in 10.0 mi Calm Calm - N/A   Clear
6:58 AM 45.3 °F - 41.5 °F 87% 29.99 in 10.0 mi Calm Calm - N/A   Clear
7:58 AM 48.4 °F - 43.2 °F 82% 30.00 in 10.0 mi Calm Calm - N/A   Clear
8:58 AM 54.1 °F - 45.9 °F 74% 30.01 in 9.0 mi ESE 3.5 mph - N/A   Clear
9:58 AM 60.3 °F - 47.1 °F 62% 30.00 in 8.0 mi ESE 3.5 mph - N/A   Clear
10:58 AM 64.4 °F - 45.7 °F 51% 29.97 in 8.0 mi East 4.6 mph - N/A   Clear
11:58 AM 68.4 °F - 43.2 °F 40% 29.96 in 9.0 mi Calm Calm - N/A   Clear
12:58 PM 70.5 °F - 40.8 °F 34% 29.94 in 9.0 mi Calm Calm - N/A   Partly Cloudy
1:58 PM 73.2 °F - 38.7 °F 29% 29.92 in 9.0 mi ENE 6.9 mph - N/A   Clear
2:58 PM 73.4 °F - 37.9 °F 28% 29.90 in 9.0 mi Calm Calm - N/A   Clear
3:58 PM 73.9 °F - 35.2 °F 24% 29.88 in 8.0 mi Calm Calm - N/A   Clear
4:58 PM 75.0 °F - 35.2 °F 24% 29.85 in 8.0 mi NNE 4.6 mph - N/A   Clear
5:58 PM 75.0 °F - 35.6 °F 24% 29.83 in 6.0 mi Calm Calm - N/A   Haze
6:13 PM 75.2 °F - 35.6 °F 24% 29.83 in 7.0 mi SSE 5.8 mph - N/A   Clear
6:58 PM 73.8 °F - 34.7 °F 24% 29.83 in 7.0 mi Calm Calm - N/A   Clear
7:43 PM 73.4 °F - 33.8 °F 23% 29.83 in 8.0 mi Calm Calm - N/A   Clear
7:58 PM 71.2 °F - 37.0 °F 29% 29.84 in 7.0 mi SW 5.8 mph - N/A   Clear
8:58 PM 66.2 °F - 47.5 °F 51% 29.84 in 9.0 mi SW 10.4 mph - N/A   Clear
9:58 PM 63.7 °F - 47.3 °F 55% 29.85 in 9.0 mi SW 8.1 mph - N/A   Clear
10:58 PM 62.2 °F - 48.2 °F 60% 29.85 in 9.0 mi SW 8.1 mph - N/A   Clear
11:58 PM 61.5 °F - 48.4 °F 62% 29.85 in 9.0 mi SW 10.4 mph - N/A   Clear